User: anonymous   Login
Location: Unspecified
(0.0000°N, 0.0000°E)
Time: 05:41:34
(UTC+00:00)
Language:

Diademe D-1C - Orbit

View from above orbital plane
View from above orbital plane
View from above satellite
View from above satellite

Ground track
Ground track

The orbit data is extracted from the following two-line orbital elements,

1  2674U 67011A   18267.41981079 +.00000349 +00000-0 +69176-4 0  9996
2  2674 039.9250 252.3645 0266310 293.3917 063.9059 14.54627798676978
Epoch (UTC): 24 September 2018 10:04:31
Eccentricity: 0.0266310
inclination: 39.9250°
perigee height: 522 km
apogee height: 899 km
right ascension of ascending node: 252.3645°
argument of perigee: 293.3917°
revolutions per day: 14.54627798
mean anomaly at epoch: 63.9059°
orbit number at epoch: 67697

The dashed part of the orbit path shows where the satellite is in the earth's shadow,  

DLR